STARLINK-32382 (61258 NORAD) Tracking and Keplerian Element Data

This shows tracking and keplerian element data for the satellite.

Feedback or suggestion? Click here.




ElementValue
Catalog61258
NameSTARLINK-32382
Epoch Orbit377
Epoch Day286.91668981
Epoch Year2024
RAAN65.1891
Inclination53.1585
Eccentricity0.0001778
Argument of Perigee21.0643
Mean Anonmoly3.757
Mean Motion15.73737388
Decay Rate-2.216E-05
L11 61258U 24175R 24286.91668981 -.00002216 00000+0 -11072-4 0 9998
L22 61258 53.1585 65.1891 0001778 21.0643 3.7570 15.73737388 3771



Live tracking and technical data element details for STARLINK-32382 (NORAD 61258). STARLINK-32382 can be tracked NOW for your location showing map with azimuth and elevation plus other details from your city location.







IsCatalogInMostPopularTable: catalog: 61258, numindb: 24
Update: records affected: 1



GetName: 61258 STARLINK-32382

Hit Count: updated at: Wed, 04 Dec 2024 08:10:50 GMT